Orbital Elements at Epoch 2459200.5 (2020-Dec-17.0) TDB
Reference: JPL 27 (heliocentric ecliptic J2000)
Element | Value | Uncertainty (1-sigma) | Units |
e | .226744289527056 | 2.5492e-08 | |
a | 2.589117507481274 | 1.0605e-08 | au |
q | 2.00204989774537 | 6.4204e-08 | au |
i | 9.085263809088312 | 5.8374e-06 | deg |
node | 217.7021835124117 | 1.8022e-05 | deg |
peri | 78.7984164946638 | 2.3153e-05 | deg |
M | 159.7932888921689 | 1.453e-05 | deg |
tp | 2458525.067266898004 (2019-Feb-10.56726690) | 5.931e-05 | TDB |
period | 1521.689587857497 4.17 | 9.3491e-06 2.56e-08 | d yr |
n | .2365791307719148 | 1.4535e-09 | deg/d |
Q | 3.176185117217177 | 1.3009e-08 | au |
|
| | Orbit Determination Parameters
Additional Information
|